NJE726B EGKB-LPPD

Flight info

Callsign NJE726B
Flight time N/A
Altitude 38000
Route IMVUR N63 SAM L620 GIBSO DCT TALIG/N0454F370 DCT TULTA/M080F380 DCT GONAN DCT 42N019W DCT BAVAS
Aircraft CL60/M-SBDE1E2E3FGHIJ1J4J5J7M3RWXYZ/LB1V1D1

Departure

Time 2026-04-25 05:08
Airport London Biggin Hill Airport (EGKB)

Arrival

Time N/A
Airport João Paulo II Airport (LPPD)
Time Latitude Longitude Altitude Speed Heading
2026-04-25 04:36 51.32067 0.03640 613 ft 0 kts 15°
2026-04-25 04:55 51.32068 0.03640 613 ft 0 kts 15°
2026-04-25 04:55 51.32067 0.03640 613 ft 0 kts 15°
2026-04-25 04:57 51.32068 0.03640 613 ft 0 kts 15°
2026-04-25 04:58 51.32067 0.03640 613 ft 0 kts 15°
2026-04-25 05:00 51.32068 0.03640 613 ft 0 kts 15°
2026-04-25 05:00 51.32078 0.03645 613 ft 4 kts 15°
2026-04-25 05:00 51.32108 0.03611 613 ft 8 kts 287°
2026-04-25 05:01 51.32134 0.03512 612 ft 11 kts 308°
2026-04-25 05:01 51.32197 0.03400 610 ft 15 kts 312°
2026-04-25 05:01 51.32230 0.03281 609 ft 8 kts 338°
2026-04-25 05:01 51.32293 0.03319 608 ft 11 kts 35°
2026-04-25 05:02 51.32370 0.03404 605 ft 15 kts 35°
2026-04-25 05:02 51.32465 0.03484 603 ft 15 kts 348°
2026-04-25 05:02 51.32584 0.03461 599 ft 19 kts
2026-04-25 05:02 51.32733 0.03463 594 ft 23 kts
2026-04-25 05:03 51.32913 0.03498 586 ft 27 kts
2026-04-25 05:03 51.33060 0.03567 579 ft 21 kts 32°
2026-04-25 05:03 51.33221 0.03613 571 ft 21 kts 346°
2026-04-25 05:03 51.33304 0.03562 568 ft 13 kts 24°
2026-04-25 05:04 51.33412 0.03646 561 ft 21 kts 26°
2026-04-25 05:04 51.33567 0.03765 551 ft 27 kts 26°
2026-04-25 05:04 51.33721 0.03884 541 ft 6 kts 23°
2026-04-25 05:04 51.33734 0.03894 540 ft 0 kts 24°
2026-04-25 05:06 51.33735 0.03894 540 ft 0 kts 24°
2026-04-25 05:06 51.33760 0.03904 539 ft 6 kts 358°
2026-04-25 05:07 51.33806 0.03850 538 ft 9 kts 298°
2026-04-25 05:07 51.33807 0.03794 539 ft 4 kts 220°
2026-04-25 05:07 51.33796 0.03784 540 ft 9 kts 206°
2026-04-25 05:07 51.33464 0.03530 562 ft 97 kts 205°
2026-04-25 05:08 51.32619 0.02878 626 ft 165 kts 205°
2026-04-25 05:08 51.31575 0.02073 1382 ft 175 kts 204°
2026-04-25 05:08 51.30427 0.01190 2080 ft 201 kts 204°
2026-04-25 05:08 51.29144 0.00208 2888 ft 209 kts 205°
2026-04-25 05:09 51.27763 -0.00897 3390 ft 242 kts 211°
2026-04-25 05:09 51.26625 -0.02942 4355 ft 257 kts 248°
2026-04-25 05:09 51.26099 -0.05633 5500 ft 265 kts 255°
2026-04-25 05:09 51.25608 -0.08496 6767 ft 272 kts 255°
2026-04-25 05:10 51.25110 -0.11360 8014 ft 277 kts 255°
2026-04-25 05:10 51.24580 -0.14308 9169 ft 283 kts 254°
2026-04-25 05:10 51.24031 -0.17341 10280 ft 290 kts 254°
2026-04-25 05:10 51.23474 -0.20403 11408 ft 294 kts 255°
2026-04-25 05:11 51.22906 -0.23516 12553 ft 296 kts 255°
2026-04-25 05:11 51.22331 -0.26657 13634 ft 299 kts 255°
2026-04-25 05:11 51.21750 -0.29825 14606 ft 303 kts 255°
2026-04-25 05:12 51.20556 -0.36310 16419 ft 311 kts 255°
2026-04-25 05:12 51.19952 -0.39579 17322 ft 313 kts 255°
2026-04-25 05:12 51.19335 -0.42910 18141 ft 316 kts 255°
2026-04-25 05:12 51.18710 -0.46278 18927 ft 319 kts 255°
2026-04-25 05:13 51.18081 -0.49660 19697 ft 322 kts 255°
2026-04-25 05:13 51.17429 -0.53060 20429 ft 326 kts 253°
2026-04-25 05:13 51.16616 -0.56422 21209 ft 327 kts 249°
2026-04-25 05:13 51.15735 -0.59707 21965 ft 327 kts 249°
2026-04-25 05:14 51.14842 -0.63041 22685 ft 329 kts 249°
2026-04-25 05:14 51.13946 -0.66386 23321 ft 331 kts 248°
2026-04-25 05:14 51.13045 -0.69744 23964 ft 334 kts 248°
2026-04-25 05:15 51.11198 -0.76622 25201 ft 342 kts 248°
2026-04-25 05:15 51.10264 -0.80095 25811 ft 345 kts 248°
2026-04-25 05:15 51.09327 -0.83576 26426 ft 348 kts 248°
2026-04-25 05:15 51.08369 -0.87130 27004 ft 352 kts 247°
2026-04-25 05:16 51.07402 -0.90709 27574 ft 354 kts 247°
2026-04-25 05:16 51.06424 -0.94330 28108 ft 358 kts 247°
2026-04-25 05:16 51.05450 -0.97926 28651 ft 360 kts 247°
2026-04-25 05:16 51.04455 -1.01596 29132 ft 363 kts 247°
2026-04-25 05:17 51.03452 -1.05288 29624 ft 366 kts 246°
2026-04-25 05:17 51.02441 -1.09008 30083 ft 369 kts 246°
2026-04-25 05:17 51.01414 -1.12777 30545 ft 371 kts 246°
2026-04-25 05:17 51.00389 -1.16535 30998 ft 373 kts 246°
2026-04-25 05:18 50.99364 -1.20291 31430 ft 375 kts 246°
2026-04-25 05:18 50.98311 -1.24139 31807 ft 378 kts 246°
2026-04-25 05:18 50.97248 -1.28016 32208 ft 380 kts 246°
2026-04-25 05:18 50.96177 -1.31920 32571 ft 382 kts 246°
2026-04-25 05:19 50.95204 -1.35878 32919 ft 385 kts 252°
2026-04-25 05:19 50.94493 -1.39989 33266 ft 386 kts 254°
2026-04-25 05:19 50.93801 -1.44100 33559 ft 389 kts 254°
2026-04-25 05:19 50.93093 -1.48280 33868 ft 391 kts 254°
2026-04-25 05:20 50.92384 -1.52454 34215 ft 391 kts 254°
2026-04-25 05:20 50.91668 -1.56651 34618 ft 390 kts 254°
2026-04-25 05:20 50.90958 -1.60804 34956 ft 388 kts 254°
2026-04-25 05:20 50.90257 -1.64890 35243 ft 388 kts 254°
2026-04-25 05:21 50.89537 -1.69077 35533 ft 387 kts 253°
2026-04-25 05:21 50.88824 -1.73207 35808 ft 387 kts 253°
2026-04-25 05:21 50.88121 -1.77275 36074 ft 386 kts 253°
2026-04-25 05:21 50.87408 -1.81384 36315 ft 387 kts 253°
2026-04-25 05:22 50.86705 -1.85427 36933 ft 386 kts 253°
2026-04-25 05:22 50.85989 -1.89537 36829 ft 386 kts 253°
2026-04-25 05:22 50.85277 -1.93613 37478 ft 385 kts 253°
2026-04-25 05:22 50.84563 -1.97688 37728 ft 384 kts 253°
2026-04-25 05:23 50.83846 -2.01774 37958 ft 384 kts 253°
2026-04-25 05:23 50.83135 -2.05815 38163 ft 384 kts 253°
2026-04-25 05:23 50.82422 -2.09858 38141 ft 384 kts 253°
2026-04-25 05:24 50.80967 -2.18074 38188 ft 393 kts 253°
2026-04-25 05:24 50.79474 -2.26466 38180 ft 402 kts 253°
2026-04-25 05:25 50.77940 -2.35046 38175 ft 410 kts 253°
2026-04-25 05:25 50.76371 -2.43778 38172 ft 418 kts 253°
2026-04-25 05:26 50.74603 -2.52588 38168 ft 423 kts 246°
2026-04-25 05:26 50.71817 -2.60793 38174 ft 428 kts 240°
2026-04-25 05:27 50.68876 -2.69062 38179 ft 432 kts 240°
2026-04-25 05:27 50.65924 -2.77346 38177 ft 432 kts 240°
2026-04-25 05:28 50.62979 -2.85592 38178 ft 432 kts 240°
2026-04-25 05:28 50.60043 -2.93791 38178 ft 431 kts 240°
2026-04-25 05:29 50.57093 -3.02007 38174 ft 431 kts 240°
2026-04-25 05:29 50.54147 -3.10188 38172 ft 431 kts 240°
2026-04-25 05:30 50.51200 -3.18349 38172 ft 431 kts 240°
2026-04-25 05:30 50.48232 -3.26541 38170 ft 431 kts 240°
2026-04-25 05:31 50.45255 -3.34735 38171 ft 431 kts 240°
2026-04-25 05:31 50.42296 -3.42855 38157 ft 432 kts 240°
2026-04-25 05:32 50.39320 -3.50997 38157 ft 432 kts 240°
2026-04-25 05:32 50.36328 -3.59157 38151 ft 432 kts 240°
2026-04-25 05:33 50.33303 -3.67381 38144 ft 433 kts 239°
2026-04-25 05:33 50.30303 -3.75512 38144 ft 433 kts 239°
2026-04-25 05:34 50.27294 -3.83642 38140 ft 433 kts 239°
2026-04-25 05:34 50.24250 -3.91840 38137 ft 434 kts 239°
2026-04-25 05:35 50.21214 -3.99992 38139 ft 435 kts 239°
2026-04-25 05:35 50.18195 -4.08072 38135 ft 435 kts 239°
2026-04-25 05:36 50.15157 -4.16178 38133 ft 435 kts 240°
2026-04-25 05:36 50.12105 -4.24299 38136 ft 434 kts 240°
2026-04-25 05:37 50.09049 -4.32403 38135 ft 434 kts 240°
2026-04-25 05:37 50.06005 -4.40450 38135 ft 434 kts 240°
2026-04-25 05:38 50.02955 -4.48489 38133 ft 434 kts 240°
2026-04-25 05:38 49.99884 -4.56558 38133 ft 434 kts 240°
2026-04-25 05:39 49.96815 -4.64596 38134 ft 434 kts 240°
2026-04-25 05:39 49.93745 -4.72612 38130 ft 435 kts 239°
2026-04-25 05:40 49.90653 -4.80664 38131 ft 435 kts 239°
2026-04-25 05:40 49.87561 -4.88690 38132 ft 435 kts 239°
2026-04-25 05:41 49.84457 -4.96720 38130 ft 434 kts 239°
2026-04-25 05:41 49.81353 -5.04726 38133 ft 434 kts 239°
2026-04-25 05:42 49.78266 -5.12667 38127 ft 434 kts 239°
2026-04-25 05:42 49.75148 -5.20662 38126 ft 433 kts 239°
2026-04-25 05:43 49.72022 -5.28653 38128 ft 433 kts 239°
2026-04-25 05:43 49.68920 -5.36557 38126 ft 433 kts 239°
2026-04-25 05:44 49.65808 -5.44462 38124 ft 432 kts 239°
2026-04-25 05:44 49.62677 -5.52395 38125 ft 433 kts 239°
2026-04-25 05:45 49.59553 -5.60285 38122 ft 433 kts 239°
2026-04-25 05:45 49.56437 -5.68132 38127 ft 432 kts 239°
2026-04-25 05:46 49.53299 -5.76009 38122 ft 431 kts 239°
2026-04-25 05:46 49.50145 -5.83827 38119 ft 431 kts 238°
2026-04-25 05:47 49.46949 -5.91602 38121 ft 431 kts 238°
2026-04-25 05:47 49.43753 -5.99354 38118 ft 431 kts 238°
2026-04-25 05:48 49.40543 -6.07120 38120 ft 431 kts 238°
2026-04-25 05:48 49.37333 -6.14867 38121 ft 431 kts 238°
2026-04-25 05:49 49.34097 -6.22649 38123 ft 431 kts 238°
2026-04-25 05:49 49.30880 -6.30366 38121 ft 431 kts 238°
2026-04-25 05:50 49.27640 -6.38115 38124 ft 431 kts 238°
2026-04-25 05:50 49.24420 -6.45793 38126 ft 431 kts 238°
2026-04-25 05:51 49.21184 -6.53487 38125 ft 430 kts 238°
2026-04-25 05:51 49.17962 -6.61127 38125 ft 431 kts 238°
2026-04-25 05:52 49.14710 -6.68815 38132 ft 431 kts 237°
2026-04-25 05:52 49.11451 -6.76497 38133 ft 432 kts 237°
2026-04-25 05:53 49.08190 -6.84162 38132 ft 432 kts 237°
2026-04-25 05:53 49.04915 -6.91837 38132 ft 432 kts 237°
2026-04-25 05:54 49.01643 -6.99483 38132 ft 431 kts 237°
2026-04-25 05:54 48.96752 -7.10873 38131 ft 431 kts 237°